Nan, Thailand

12:36 AM +07 on April 25, 2018 (GMT +0700)
Nan

Weather History for VTCN - January, 2014

Change the Weather History Date:

Monday, January 6, 2014

  Actual Average Record
Temperature  
Mean Temperature 72 °F -  
Max Temperature 88 °F 87 °F - ()
Min Temperature 57 °F 57 °F - ()
Cooling Degree Days 8    
Growing Degree Days 22 (Base 50)    
Moisture  
Dew Point 62 °F    
Average Humidity 65    
Maximum Humidity 100    
Minimum Humidity 35    
Precipitation  
Precipitation 0.00 in 0.01 in - ()
Sea Level Pressure  
Sea Level Pressure 29.86 in    
Wind  
Wind Speed 1 mph ()    
Max Wind Speed 6 mph    
Max Gust Speed -    
Visibility 3.9 miles    
Events Fog    
T = Trace of Precipitation, MM = Missing Value Source: Averaged Metar Reports

Daily Weather History Graph

Daily Weather History Graph

Search for Another Location

Airport or City:

Astronomy

Jan. 06, 2014 Rise Set
Actual Time 6:51 AM +07 5:54 PM +07
Civil Twilight 6:27 AM +07 6:17 PM +07
Nautical Twilight 6:00 AM +07 6:45 PM +07
Astronomical Twilight 5:33 AM +07 7:11 PM +07
Moon 10:35 AM +07 (1/6) 11:01 PM +07 (1/6)
Length of Visible Light 11h 50m
Length of Day
11h 03m
Waxing Crescent, 29% of the Moon is Illuminated
Jan 6
Waxing Crescent
Jan 8
First Quarter
Jan 16
Full
Jan 24
Last Quarter
Jan 31
New

Hourly Weather History & Observations

Time (+07) Temp. Heat Index Dew Point Humidity Pressure Visibility Wind Dir Wind Speed Gust Speed Precip Events Conditions
1:00 AM 66 °F - 64 °F 89% 29.87 in 6 mi Calm Calm - -  
4:00 AM 64 °F - 62 °F 91% 29.85 in 4 mi Calm Calm - -   Mist
7:00 AM 61 °F - 60 °F 97% 29.91 in 0 mi Calm Calm - - Fog Heavy Fog
7:00 AM 59.0 °F - 59.0 °F 100% 29.89 in 0.1 mi NE 2.3 mph - N/A Fog Fog
9:00 AM 66.2 °F - 66.2 °F 100% 29.95 in 1.2 mi North 3.5 mph - N/A   Mist
10:00 AM 71 °F - 65 °F 76% 29.95 in 4 mi Calm Calm - -   Mist
10:00 AM 71.6 °F - 62.6 °F 73% 29.95 in 3.7 mi NNE 3.5 mph - N/A   Unknown
11:00 AM 77.0 °F - 59.0 °F 54% 29.92 in 4.3 mi South 2.3 mph - N/A   Unknown
12:00 PM 80.6 °F 80.8 °F 57.2 °F 45% 29.89 in 4.3 mi ESE 3.5 mph - N/A   Unknown
1:00 PM 84 °F - 65 °F 43% 29.84 in 4 mi Calm Calm - -   Haze
1:00 PM 84.2 °F 83.5 °F 57.2 °F 40% 29.83 in 4.3 mi WSW 5.8 mph - N/A   Partly Cloudy
2:00 PM 86.0 °F 84.9 °F 57.2 °F 37% 29.80 in 5.0 mi SW 2.3 mph - N/A   Partly Cloudy
3:00 PM 86.0 °F 84.9 °F 57.2 °F 37% 29.80 in 5.0 mi SW 2.3 mph - N/A   Partly Cloudy
4:00 PM 88 °F - 65 °F 36% 29.78 in 4 mi Calm Calm - -   Haze
4:00 PM 87.8 °F 86.5 °F 57.2 °F 35% 29.80 in 5.0 mi West 2.3 mph - N/A   Unknown
5:00 PM 84.2 °F 83.5 °F 57.2 °F 40% 29.80 in 5.0 mi NNE 3.5 mph - N/A   Partly Cloudy
6:00 PM 77.0 °F - 57.2 °F 50% 29.83 in 5.0 mi South 2.3 mph - N/A   Unknown
7:00 PM 77 °F - 66 °F 60% 29.83 in 4 mi Calm Calm - -   Mist
7:00 PM 71.6 °F - 66.2 °F 83% 29.83 in 5.0 mi NNE 2.3 mph - N/A   Unknown
8:00 PM 69.8 °F - 66.2 °F 88% 29.86 in 5.0 mi NNE 2.3 mph - N/A   Unknown
10:00 PM 70 °F - 65 °F 81% 29.88 in 4 mi Calm Calm - -   Mist